Погода в Богандинском

Россия / Тюменская область     56°57′18″N   65°49′22″E
темп.,
°C
ветер,
м/с
пор.,
м/с
влажн.,
%
обл.,
%
осадки,
мм/ч
давл.,
гПа
погр.,
м
13 апреля, вт
вт1323:00+5ссз26804 0.0 1037107
02:00+3сз22831 0.0 103822
05:00+2сз22860 0.0 104018
08:00+5зсз23760 0.0 1041175
11:00+10зсз35474 0.0 1040827
14:00+12з34385 0.0 10391172
17:00+13зюз45455 0.0 10371002
20:00+8юз38745 0.0 1037171
14 апреля, ср
ср1423:00+6юз4118582 0.0 1035261
02:00+6юз41391100 0.0 1033339
05:00+7юз41288100 0.0 1032339
08:00+9зюз4128556 0.0 1031379
11:00+15з586455 0.0 1029704
14:00+18з57525 0.0 10281207
17:00+18зсз475377 0.0 10271324
20:00+13зюз23745 0.0 102745
15 апреля, чт
чт1523:00+11зюз36895 0.0 1026103
02:00+10з22915 0.0 102537
05:00+8зюз25905 0.0 102581
08:00+12зюз38775 0.0 1024232
11:00+17зюз47515 0.0 1023941
14:00+20зюз57455 0.0 10211566
17:00+20зюз57495 0.0 10191564
20:00+14юз39715 0.0 1017181
16 апреля, пт
пт1623:00+12зюз311807 0.0 1016252
02:00+10зюз278829 0.0 1015125
05:00+8зсз2675100 0.0 1015104
08:00+9с4783100 0.0 1015430
11:00+7ссв5885100 0.1 1016660
14:00+5ссв5988100 0.6 1017656
17:00+3ссв51195100 2.6 1018553
20:00+3св51196100 1.1 1018669
17 апреля, сб
сб1723:00+1св3992100 1.9 1018677
02:000св4871100 0.2 1018558
05:00−2св377349 0.2 1018399
08:00−1св35625 0.0 1017638
11:00+2св3450100 0.0 10161224
14:00+3св3442100 0.0 10151626
17:00+3св4539100 0.0 10151746
20:000ссв484888 0.0 1016496